DW4075 Weather Reports


time (UTC)temp
C
wind
direction
speed
KPH
gust
KPH
rain 1hr
cm
rain 24hr
cm
rain mn
cm
humidity
%
barometer
mb
20260510130752 11 351 0.0 0.0 0.00 0.00 0.00 39 1013.6
20260510130242 11 351 0.0 0.0 0.00 0.00 0.00 39 1013.2
20260510125737 10 351 0.0 0.0 0.00 0.00 0.00 40 1012.9
20260510125500 10 351 0.0 0.0 0.00 0.00 0.00 39 1012.7
20260510124732 10 351 0.0 0.0 0.00 0.00 0.00 39 1012.6
20260510124231 10 351 0.0 0.0 0.00 0.00 0.00 39 1012.3
20260510123728 10 351 0.0 0.0 0.00 0.00 0.00 38 1012.5
20260510123220 10 351 0.0 0.0 0.00 0.00 0.00 38 1012.6
20260510122716 10 351 0.0 0.0 0.00 0.00 0.00 38 1012.6
20260510122210 10 351 0.0 0.0 0.00 0.00 0.00 38 1012.5
20260510121704 10 351 0.0 0.0 0.00 0.00 0.00 38 1012.3
20260510121204 10 351 0.0 0.0 0.00 0.00 0.00 38 1012.3
20260510120709 10 351 0.0 0.0 0.00 0.00 0.00 37 1012.5
20260510120158 10 351 0.0 0.0 0.00 0.00 0.00 37 1012.6
20260510115654 11 351 0.0 0.0 0.00 0.00 0.00 37 1012.6
20260510115139 11 351 0.0 0.0 0.00 0.00 0.00 37 1012.6
20260510114647 11 351 0.0 0.0 0.00 0.00 0.00 37 1012.6
20260510114139 11 351 0.0 0.0 0.00 0.00 0.00 37 1012.7
20260510113637 11 351 0.0 0.0 0.00 0.00 0.00 36 1012.7
20260510113129 11 351 0.0 0.0 0.00 0.00 0.00 35 1012.8
20260510112630 11 351 0.0 0.0 0.00 0.00 0.00 35 1012.9
20260510112543 11 351 0.0 1.6 0.00 0.00 0.00 35 1013.1
20260510111830 12 351 1.6 8.0 0.00 0.00 0.00 35 1012.9
20260510111104 12 351 3.2 8.0 0.00 0.00 0.00 35 1012.9
20260510110555 12 351 1.6 6.4 0.00 0.00 0.00 35 1012.7
20260510110049 12 351 0.0 1.6 0.00 0.00 0.00 34 1012.7
20260510105543 12 351 1.6 3.2 0.00 0.00 0.00 34 1013.1
20260510105300 12 351 1.6 6.4 0.00 0.00 0.00 34 1013.1
20260510104537 12 351 1.6 6.4 0.00 0.00 0.00 34 1013.1
20260510104034 12 351 1.6 4.8 0.00 0.00 0.00 34 1013.1
20260510103533 12 351 0.0 4.8 0.00 0.00 0.00 33 1013.1
20260510103032 13 351 0.0 0.0 0.00 0.00 0.00 34 1013.2
20260510102532 13 351 0.0 3.2 0.00 0.00 0.00 33 1013.3
20260510102037 13 351 0.0 3.2 0.00 0.00 0.00 32 1013.6
20260510101516 13 351 0.0 0.0 0.00 0.00 0.00 32 1013.8
20260510101011 13 351 0.0 1.6 0.00 0.00 0.00 32 1013.8
20260510100739 13 351 0.0 1.6 0.00 0.00 0.00 32 1013.9
20260510100226 13 351 0.0 4.8 0.00 0.00 0.00 31 1013.9
20260510095502 14 351 1.6 8.0 0.00 0.00 0.00 32 1014.0
20260510095000 14 351 1.6 8.0 0.00 0.00 0.00 31 1014.0
20260510094506 14 351 0.0 3.2 0.00 0.00 0.00 31 1014.0
20260510094003 14 351 0.0 3.2 0.00 0.00 0.00 30 1014.0
20260510093449 14 351 0.0 1.6 0.00 0.00 0.00 30 1014.0
20260510093208 14 351 1.6 8.0 0.00 0.00 0.00 30 1013.9
20260510092450 14 351 1.6 8.0 0.00 0.00 0.00 30 1013.9
20260510091943 14 351 0.0 0.0 0.00 0.00 0.00 30 1013.8
20260510091431 14 351 0.0 1.6 0.00 0.00 0.00 30 1013.7
20260510090930 14 351 0.0 4.8 0.00 0.00 0.00 31 1013.7
20260510090654 14 351 0.0 4.8 0.00 0.00 0.00 30 1013.4
20260510085932 14 351 1.6 8.0 0.00 0.00 0.00 30 1013.6
20260510085431 14 351 3.2 8.0 0.00 0.00 0.00 30 1013.3
20260510084931 13 5 1.6 9.7 0.00 0.00 0.00 31 1013.1
20260510084430 13 9 0.0 9.7 0.00 0.00 0.00 32 1012.8
20260510083931 13 35 0.0 0.0 0.00 0.00 0.00 32 1012.8
20260510083427 13 35 0.0 0.0 0.00 0.00 0.00 32 1012.6
20260510082915 13 35 0.0 0.0 0.00 0.00 0.00 32 1012.6
20260510082627 13 35 0.0 0.0 0.00 0.00 0.00 32 1012.3
20260510081903 13 35 0.0 0.0 0.00 0.00 0.00 31 1012.5
20260510081404 13 35 0.0 0.0 0.00 0.00 0.00 31 1012.7
20260510080904 13 35 0.0 0.0 0.00 0.00 0.00 32 1012.7
20260510080402 13 35 0.0 0.0 0.00 0.00 0.00 31 1012.7
20260510075902 13 35 0.0 0.0 0.00 0.00 0.00 31 1012.8
20260510075403 13 35 0.0 0.0 0.00 0.00 0.00 31 1013.1
20260510074903 13 35 0.0 0.0 0.00 0.00 0.00 30 1013.1
20260510074404 14 35 0.0 0.0 0.00 0.00 0.00 30 1013.2
20260510073902 14 35 0.0 0.0 0.00 0.00 0.00 30 1013.2
20260510073333 14 35 0.0 0.0 0.00 0.00 0.00 29 1013.3
20260510072832 14 35 0.0 0.0 0.00 0.00 0.00 29 1013.3
20260510072331 15 35 0.0 0.0 0.00 0.00 0.00 29 1013.7
20260510071832 15 35 0.0 0.0 0.00 0.00 0.00 28 1013.8
20260510071329 15 35 0.0 0.0 0.00 0.00 0.00 28 1013.9
20260510071039 15 35 0.0 0.0 0.00 0.00 0.00 27 1014.4
20260510070538 16 35 0.0 0.0 0.00 0.00 0.00 27 1014.6
20260510070021 16 35 0.0 0.0 0.00 0.00 0.00 26 1014.9
20260510065306 16 35 0.0 0.0 0.00 0.00 0.00 26 1015.0
20260510064803 16 35 0.0 0.0 0.00 0.00 0.00 25 1014.8
20260510064259 17 35 0.0 3.2 0.00 0.00 0.00 25 1015.0
20260510063758 17 35 1.6 8.0 0.00 0.00 0.00 25 1015.3
20260510063730 17 35 3.2 8.0 0.00 0.00 0.00 25 1015.3
20260510063452 17 35 1.6 9.7 0.00 0.00 0.00 25 1015.5
20260510062235 17 35 3.2 9.7 0.00 0.00 0.00 25 1015.4
20260510061732 17 36 3.2 9.7 0.00 0.00 0.00 25 1015.4
20260510061231 17 36 3.2 11.3 0.00 0.00 0.00 25 1015.5
20260510060732 17 36 4.8 12.9 0.00 0.00 0.00 24 1015.6
20260510060228 17 41 4.8 12.9 0.00 0.00 0.00 25 1015.6
20260510055725 17 51 3.2 11.3 0.00 0.00 0.00 25 1015.7
20260510055650 18 39 3.2 9.7 0.00 0.00 0.00 25 1015.9
20260510055644 18 39 4.8 14.5 0.00 0.00 0.00 24 1015.9
20260510054209 18 39 4.8 14.5 0.00 0.00 0.00 25 1015.9
20260510053938 17 27 4.8 12.9 0.00 0.00 0.00 25 1015.7
20260510053203 17 28 4.8 12.9 0.00 0.00 0.00 25 1015.7
20260510052703 17 26 4.8 12.9 0.00 0.00 0.00 25 1015.6
20260510052202 17 26 3.2 11.3 0.00 0.00 0.00 25 1015.7
20260510051703 18 25 3.2 9.7 0.00 0.00 0.00 24 1016.0
20260510051202 18 25 3.2 8.0 0.00 0.00 0.00 24 1016.0
20260510050644 18 25 4.8 9.7 0.00 0.00 0.00 24 1016.0
20260510050143 18 25 4.8 11.3 0.00 0.00 0.00 23 1016.0
20260510045642 18 24 3.2 11.3 0.00 0.00 0.00 23 1016.2
20260510045138 18 22 4.8 11.3 0.00 0.00 0.00 23 1016.2
20260510044634 18 22 6.4 16.1 0.00 0.00 0.00 23 1016.3
20260510044132 18 11 6.4 16.1 0.00 0.00 0.00 23 1016.2
20260510043631 18 0 6.4 16.1 0.00 0.00 0.00 23 1016.2
20260510043131 18 0 6.4 16.1 0.00 0.00 0.00 23 1016.0
20260510042631 18 28 4.8 11.3 0.00 0.00 0.00 22 1015.7
20260510042132 18 355 4.8 11.3 0.00 0.00 0.00 22 1015.6
20260510041631 17 349 4.8 11.3 0.00 0.00 0.00 22 1015.4
20260510041131 17 348 4.8 9.7 0.00 0.00 0.00 21 1015.1
20260510040632 17 325 1.6 9.7 0.00 0.00 0.00 20 1014.9
20260510040131 17 305 1.6 4.8 0.00 0.00 0.00 18 1014.9
20260510035631 17 305 1.6 6.4 0.00 0.00 0.00 18 1014.9
20260510035132 17 305 3.2 8.0 0.00 0.00 0.00 18 1015.0
20260510034854 17 305 3.2 9.7 0.00 0.00 0.00 18 1015.0
20260510034130 18 305 4.8 9.7 0.00 0.00 0.00 18 1015.0
20260510033629 18 305 3.2 9.7 0.00 0.00 0.00 17 1014.9
20260510033125 18 305 3.2 9.7 0.00 0.00 0.00 17 1014.9
20260510032844 18 305 3.2 8.0 0.00 0.00 0.00 17 1014.9
20260510032121 18 305 3.2 8.0 0.00 0.00 0.00 17 1015.0
20260510031621 18 305 3.2 8.0 0.00 0.00 0.00 17 1015.0
20260510031124 18 305 3.2 8.0 0.00 0.00 0.00 17 1015.0
20260510030621 18 305 3.2 8.0 0.00 0.00 0.00 17 1015.1
20260510030105 18 305 3.2 8.0 0.00 0.00 0.00 16 1014.9
20260510025813 18 305 3.2 9.7 0.00 0.00 0.00 16 1014.8
20260510025051 18 304 3.2 9.7 0.00 0.00 0.00 16 1014.9
20260510024550 19 304 3.2 8.0 0.00 0.00 0.00 16 1014.9
20260510024044 19 304 3.2 8.0 0.00 0.00 0.00 16 1015.0
20260510023541 19 304 3.2 8.0 0.00 0.00 0.00 16 1015.0
20260510023039 20 304 1.6 6.4 0.00 0.00 0.00 15 1015.3
20260510022533 20 304 0.0 3.2 0.00 0.00 0.00 15 1015.5
20260510022259 21 304 1.6 8.0 0.00 0.00 0.00 15 1015.9
20260510021527 21 304 3.2 8.0 0.00 0.00 0.00 14 1016.0
20260510021026 21 304 6.4 11.3 0.00 0.00 0.00 14 1016.2
20260510020526 22 304 6.4 14.5 0.00 0.00 0.00 14 1016.3
20260510020026 22 311 6.4 14.5 0.00 0.00 0.00 13 1016.3
20260510015524 22 300 6.4 17.7 0.00 0.00 0.00 13 1016.7
20260510015023 22 284 8.0 17.7 0.00 0.00 0.00 13 1016.7
20260510014524 23 294 8.0 17.7 0.00 0.00 0.00 13 1017.0
20260510014020 23 289 11.3 22.5 0.00 0.00 0.00 13 1017.2
20260510013739 23 290 12.9 24.1 0.00 0.00 0.00 13 1017.2
20260510013017 23 295 12.9 25.7 0.00 0.00 0.00 12 1017.4
20260510012512 24 283 9.7 25.7 0.00 0.00 0.00 12 1017.4
20260510012011 25 296 8.0 19.3 0.00 0.00 0.00 12 1017.8
20260510011505 25 280 12.9 25.7 0.00 0.00 0.00 12 1017.8
20260510011005 25 280 14.5 30.6 0.00 0.00 0.00 12 1017.9
20260510010731 25 246 12.9 30.6 0.00 0.00 0.00 12 1018.0
20260510010004 25 294 14.5 30.6 0.00 0.00 0.00 11 1018.0
20260510005503 25 280 14.5 30.6 0.00 0.00 0.00 11 1018.4
20260510005003 25 286 12.9 22.5 0.00 0.00 0.00 11 1018.4
20260510004501 26 298 12.9 22.5 0.00 0.00 0.00 11 1018.7
20260510004001 26 321 16.1 32.2 0.00 0.00 0.00 11 1018.5
20260510003501 26 306 17.7 38.6 0.00 0.00 0.00 11 1018.5
20260510003219 26 313 17.7 33.8 0.00 0.00 0.00 10 1019.0
20260510003207 26 289 17.7 38.6 0.00 0.00 0.00 11 1018.8
20260510001956 27 286 17.7 33.8 0.00 0.00 0.00 10 1019.3
20260510001456 27 289 16.1 32.2 0.00 0.00 0.00 10 1019.3
20260510001218 27 286 12.9 32.2 0.00 0.00 0.00 10 1019.5
20260510000457 27 307 12.9 25.7 0.00 0.00 0.00 10 1019.6
20260509235956 27 213 14.5 30.6 0.00 0.00 0.00 10 1019.5
20260509235454 27 265 16.1 30.6 0.00 0.00 0.00 10 1019.5
20260509234955 27 309 16.1 32.2 0.00 0.00 0.00 10 1019.4
20260509234455 27 273 17.7 33.8 0.00 0.00 0.00 10 1019.3
20260509233956 26 312 19.3 35.4 0.00 0.00 0.00 10 1019.1
20260509233718 27 298 16.1 35.4 0.00 0.00 0.00 10 1019.3
20260509233441 26 313 12.9 22.5 0.00 0.00 0.00 11 1019.0
20260509232456 26 240 16.1 32.2 0.00 0.00 0.00 10 1018.9
20260509231952 27 302 17.7 32.2 0.00 0.00 0.00 10 1019.4
20260509231452 27 271 17.7 38.6 0.00 0.00 0.00 9 1019.5
20260509231220 28 326 16.1 38.6 0.00 0.00 0.00 8 1020.1
20260509230456 28 250 14.5 32.2 0.00 0.00 0.00 9 1020.1
20260509230228 28 289 11.3 30.6 0.00 0.00 0.00 10 1020.2
20260509225705 28 315 12.9 25.7 0.00 0.00 0.00 10 1020.4
20260509224948 28 302 16.1 32.2 0.00 0.00 0.00 10 1020.0
20260509224437 28 311 17.7 32.2 0.00 0.00 0.00 9 1020.2
20260509223932 29 304 16.1 30.6 0.00 0.00 0.00 9 1020.7
20260509223428 29 288 14.5 32.2 0.00 0.00 0.00 10 1020.8
20260509223135 29 259 14.5 32.2 0.00 0.00 0.00 10 1021.0
20260509222411 29 225 14.5 32.2 0.00 0.00 0.00 10 1020.6
20260509221904 29 257 14.5 32.2 0.00 0.00 0.00 10 1020.8
20260509221353 29 254 14.5 25.7 0.00 0.00 0.00 10 1020.6
20260509221329 28 287 17.7 40.2 0.00 0.00 0.00 9 1020.6
20260509220346 28 300 16.1 40.2 0.00 0.00 0.00 9 1020.7
20260509215846 29 296 12.9 30.6 0.00 0.00 0.00 10 1021.0
20260509215346 29 338 12.9 30.6 0.00 0.00 0.00 10 1020.8
20260509214843 29 264 12.9 29.0 0.00 0.00 0.00 10 1020.8
20260509214342 29 294 17.7 40.2 0.00 0.00 0.00 10 1020.7
20260509213840 29 296 17.7 40.2 0.00 0.00 0.00 10 1021.0
20260509213341 29 292 14.5 32.2 0.00 0.00 0.00 9 1021.2
20260509212840 29 251 12.9 22.5 0.00 0.00 0.00 10 1021.2
20260509212340 29 317 12.9 25.7 0.00 0.00 0.00 11 1021.3
20260509212103 29 318 11.3 25.7 0.00 0.00 0.00 11 1021.6
20260509211338 28 310 11.3 22.5 0.00 0.00 0.00 11 1021.3
20260509210838 28 290 14.5 32.2 0.00 0.00 0.00 11 1020.8
20260509210337 27 298 14.5 32.2 0.00 0.00 0.00 12 1020.8
20260509205832 28 300 12.9 29.0 0.00 0.00 0.00 11 1021.3
20260509205332 28 296 17.7 35.4 0.00 0.00 0.00 12 1021.2
20260509204833 27 300 17.7 38.6 0.00 0.00 0.00 12 1021.0
20260509204336 28 294 14.5 38.6 0.00 0.00 0.00 11 1021.5
20260509203838 28 335 12.9 24.1 0.00 0.00 0.00 12 1021.6
20260509203331 29 282 16.1 33.8 0.00 0.00 0.00 11 1022.1
20260509202832 28 271 16.1 33.8 0.00 0.00 0.00 11 1022.1
20260509202324 29 284 14.5 32.2 0.00 0.00 0.00 12 1022.2
20260509202041 28 349 12.9 22.5 0.00 0.00 0.00 12 1022.1
20260509201320 28 333 14.5 29.0 0.00 0.00 0.00 12 1022.2
20260509200820 28 327 16.1 30.6 0.00 0.00 0.00 12 1022.1
20260509200319 28 267 14.5 30.6 0.00 0.00 0.00 12 1022.2
20260509195818 28 302 12.9 29.0 0.00 0.00 0.00 12 1022.4
20260509195319 28 290 16.1 35.4 0.00 0.00 0.00 11 1022.2
20260509194818 28 308 19.3 35.4 0.00 0.00 0.00 12 1022.1
20260509194537 27 304 12.9 35.4 0.00 0.00 0.00 11 1021.7
20260509193814 27 317 11.3 33.8 0.00 0.00 0.00 12 1021.5
20260509193311 27 290 12.9 33.8 0.00 0.00 0.00 11 1021.6
20260509193303 26 315 12.9 25.7 0.00 0.00 0.00 13 1021.0
20260509192306 26 340 14.5 25.7 0.00 0.00 0.00 12 1021.1
20260509192237 27 339 14.5 30.6 0.00 0.00 0.00 11 1021.8
20260509191509 28 244 16.1 30.6 0.00 0.00 0.00 12 1022.3
20260509190751 28 252 12.9 25.7 0.00 0.00 0.00 12 1022.3
20260509190250 27 273 8.0 20.9 0.00 0.00 0.00 12 1022.1
20260509185749 27 213 8.0 16.1 0.00 0.00 0.00 13 1021.6
20260509185243 26 302 6.4 16.1 0.00 0.00 0.00 15 1021.5
20260509184742 26 126 6.4 14.5 0.00 0.00 0.00 15 1021.2
20260509184239 26 122 3.2 12.9 0.00 0.00 0.00 14 1021.1
20260509183959 25 204 3.2 8.0 0.00 0.00 0.00 15 1021.1
20260509183503 26 204 3.2 9.7 0.00 0.00 0.00 15 1021.3
20260509182735 26 220 4.8 16.1 0.00 0.00 0.00 14 1021.7
20260509182236 26 247 3.2 16.1 0.00 0.00 0.00 16 1021.8
20260509181735 26 176 3.2 11.3 0.00 0.00 0.00 16 1021.7
20260509181233 25 178 3.2 12.9 0.00 0.00 0.00 16 1021.3
20260509180733 25 191 1.6 12.9 0.00 0.00 0.00 16 1021.2
20260509180233 25 104 1.6 8.0 0.00 0.00 0.00 17 1021.2
20260509175732 25 98 4.8 9.7 0.00 0.00 0.00 16 1021.1
20260509175231 25 97 6.4 14.5 0.00 0.00 0.00 16 1021.2
20260509174730 25 69 6.4 16.1 0.00 0.00 0.00 15 1021.5
20260509174223 25 51 3.2 16.1 0.00 0.00 0.00 16 1021.5
20260509173718 25 141 4.8 12.9 0.00 0.00 0.00 16 1021.5
20260509173216 25 141 3.2 12.9 0.00 0.00 0.00 16 1021.6
20260509172711 25 150 4.8 14.5 0.00 0.00 0.00 16 1021.6
20260509172210 25 150 6.4 14.5 0.00 0.00 0.00 15 1021.7
20260509171705 25 102 4.8 14.5 0.00 0.00 0.00 16 1021.9
20260509171206 25 67 8.0 16.1 0.00 0.00 0.00 17 1021.9
20260509170703 25 107 9.7 17.7 0.00 0.00 0.00 16 1021.9
20260509170206 25 63 9.7 17.7 0.00 0.00 0.00 16 1022.2
20260509165702 25 63 8.0 17.7 0.00 0.00 0.00 17 1022.2
20260509165203 25 83 8.0 17.7 0.00 0.00 0.00 17 1022.1
20260509164703 25 50 8.0 16.1 0.00 0.00 0.00 19 1022.2
20260509164159 25 84 8.0 16.1 0.00 0.00 0.00 19 1022.2
20260509163659 25 70 8.0 17.7 0.00 0.00 0.00 20 1021.9
20260509163159 24 69 6.4 17.7 0.00 0.00 0.00 19 1021.7
20260509162653 23 104 4.8 12.9 0.00 0.00 0.00 20 1021.3
20260509162153 23 104 6.4 12.9 0.00 0.00 0.00 20 1021.2
20260509161650 23 126 4.8 11.3 0.00 0.00 0.00 20 1021.2
20260509161150 23 177 3.2 9.7 0.00 0.00 0.00 19 1021.3
20260509160909 23 186 4.8 12.9 0.00 0.00 0.00 19 1021.1
20260509160143 23 186 4.8 12.9 0.00 0.00 0.00 21 1020.8
20260509155639 22 186 6.4 11.3 0.00 0.00 0.00 22 1020.6
20260509155401 22 138 4.8 11.3 0.00 0.00 0.00 22 1020.2
20260509154635 21 161 4.8 11.3 0.00 0.00 0.00 23 1019.9
20260509154132 21 149 6.4 14.5 0.00 0.00 0.00 22 1019.7
20260509153631 21 148 6.4 14.5 0.00 0.00 0.00 23 1019.7
20260509153131 21 125 4.8 12.9 0.00 0.00 0.00 23 1019.5
20260509152631 20 104 3.2 9.7 0.00 0.00 0.00 24 1019.6
20260509152351 20 88 1.6 9.7 0.00 0.00 0.00 25 1019.4
20260509151631 20 51 3.2 11.3 0.00 0.00 0.00 26 1019.1
20260509151130 20 42 4.8 11.3 0.00 0.00 0.00 25 1019.1
20260509150631 19 42 3.2 9.7 0.00 0.00 0.00 26 1019.0
20260509150350 19 41 4.8 11.3 0.00 0.00 0.00 27 1018.8
20260509145629 19 39 6.4 11.3 0.00 0.00 0.00 26 1018.8
20260509145120 18 34 4.8 9.7 0.00 0.00 0.00 26 1018.4
20260509144840 18 32 4.8 11.3 0.00 0.00 0.00 26 1018.2
20260509144114 18 33 4.8 11.3 0.00 0.00 0.00 27 1018.3
20260509143607 18 29 3.2 9.7 0.00 0.00 0.00 27 1018.3
20260509143103 18 25 1.6 8.0 0.00 0.00 0.00 27 1017.9
20260509142603 18 24 1.6 4.8 0.00 0.00 0.00 27 1017.9
20260509142556 17 24 1.6 4.8 0.00 0.00 0.00 28 1017.8
20260509141604 17 24 1.6 4.8 0.00 0.00 0.00 28 1017.6
20260509141101 17 24 1.6 9.7 0.00 0.00 0.00 28 1017.4
20260509140555 17 24 1.6 9.7 0.00 0.00 0.00 29 1017.2
20260509140055 16 24 1.6 8.0 0.00 0.00 0.00 30 1017.1
20260509135550 16 24 3.2 9.7 0.00 0.00 0.00 30 1017.0
20260509135525 15 24 1.6 9.7 0.00 0.00 0.00 31 1016.3
20260509134548 15 349 0.0 4.8 0.00 0.00 0.00 34 1016.0
20260509134048 13 349 0.0 0.0 0.00 0.00 0.00 35 1015.0
20260509133535 13 349 0.0 0.0 0.00 0.00 0.00 37 1014.4
20260509133037 12 349 0.0 0.0 0.00 0.00 0.00 39 1013.6
20260509132531 11 349 0.0 0.0 0.00 0.00 0.00 42 1012.9
20260509132028 10 349 0.0 0.0 0.00 0.00 0.00 43 1012.3
20260509131522 9 349 0.0 0.0 0.00 0.00 0.00 44 1011.6
20260509131230 8 349 0.0 0.0 0.00 0.00 0.00 46 1010.8